Tracking 18980 objects as of 23-Feb-2018
HD Live streaming from Space Station
objects crossing your sky now

NOAA 16 DEB

Track NOAA 16 DEB now!
10-day predictions


NORAD ID: 41057
Int'l Code: 2000-055Q
Perigee: 821.0 km
Apogee: 858.3 km
Inclination: 98.9 °
Period: 101.6 minutes
Semi major axis: 7210 km
RCS: Unknown
Launch date: September 21, 2000
Source: United States (US)
Launch site: AIR FORCE WESTERN TEST RANGE (AFWTR)

Note: This is SATELLITE DEBRIS
aabbcc
Your satellite tracking list
Your tracking list is empty




NASA's NSSDC Master Catalog

Two Line Element Set (TLE):
1 41057U 00055Q   18053.48417626 +.00000623 +00000-0 +32579-3 0  9992
2 41057 098.8920 137.3474 0025839 309.6618 050.2277 14.17894199116143
Source of the keplerian elements: AFSPC